Location: Austin
(30.3000°N, 97.7500°W)
Time: 07:26:57
(UTC-05:00)

USA 186 - Pass Details

Date: 15 May 2024
Orbit: 338 x 362 km, 97.0° (Epoch: 12 May)

Event Time Altitude Azimuth Distance (km) Brightness Sun altitude
Exits shadow 21:00:20 12° 131° (SE) 1,223 3.5 -9.0°
Maximum altitude 21:02:28 27° 74° (ENE) 767 2.7 -9.4°
Drops below altitude 10° 21:05:05 10° 14° (NNE) 1,425 4.6 -9.9°
Sets 21:07:17 0° 2° (N) 2,318 5.9 -10.3°
